Time,TemperatureF,DewpointF,PressureIn,WindDirection,WindDirectionDegrees,WindSpeedMPH,WindSpeedGustMPH,Humidity,HourlyPrecipIn,Conditions,Clouds,dailyrainin,SoftwareType,DateUTC
2013-02-19 00:00:00,44.7,40.8,24.25,SW,215,8.0,22.0,86,0.07,,SKC,0.18,VWS V14.01,2013-02-19 05:00:00,
2013-02-19 00:05:00,44.8,40.6,24.26,SW,227,12.0,28.0,85,0.08,,SKC,0.01,VWS V14.01,2013-02-19 05:05:00,
2013-02-19 00:10:00,45.0,40.5,24.24,South,186,15.0,28.0,84,0.06,,SKC,0.01,VWS V14.01,2013-02-19 05:10:00,
2013-02-19 00:15:00,44.9,40.7,24.25,SSW,204,18.0,23.0,85,0.06,,SKC,0.01,VWS V14.01,2013-02-19 05:15:00,
2013-02-19 00:20:00,44.7,40.5,24.26,South,179,15.0,24.0,85,0.05,,SKC,0.01,VWS V14.01,2013-02-19 05:20:00,
2013-02-19 00:25:00,44.6,40.4,24.25,SSW,192,10.0,25.0,85,0.05,,SKC,0.01,VWS V14.01,2013-02-19 05:25:00,
2013-02-19 00:30:00,44.6,40.4,24.25,SSW,202,12.0,30.0,85,0.04,,SKC,0.01,VWS V14.01,2013-02-19 05:30:00,
2013-02-19 00:35:00,44.9,40.7,24.25,SSW,192,15.0,27.0,85,0.03,,SKC,0.01,VWS V14.01,2013-02-19 05:35:00,
2013-02-19 00:40:00,45.0,40.8,24.27,South,182,24.0,27.0,85,0.03,,SKC,0.01,VWS V14.01,2013-02-19 05:40:00,
2013-02-19 00:45:00,45.2,40.7,24.26,South,169,14.0,29.0,84,0.02,,SKC,0.01,VWS V14.01,2013-02-19 05:45:00,
2013-02-19 00:50:00,45.3,40.8,24.25,South,190,10.0,22.0,84,0.01,,SKC,0.01,VWS V14.01,2013-02-19 05:50:00,
2013-02-19 00:55:00,45.2,41.0,24.26,SW,236,9.0,31.0,85,0.01,,SKC,0.01,VWS V14.01,2013-02-19 05:55:00,
2013-02-19 01:00:00,45.3,41.1,24.26,SSW,207,10.0,29.0,85,0.01,,SKC,0.01,VWS V14.01,2013-02-19 06:00:00,
2013-02-19 01:05:00,45.3,41.1,24.24,WSW,238,20.0,28.0,85,0.01,,SKC,0.01,VWS V14.01,2013-02-19 06:05:00,
2013-02-19 01:10:00,45.3,41.1,24.26,SW,220,15.0,33.0,85,0.00,,SKC,0.01,VWS V14.01,2013-02-19 06:10:00,
2013-02-19 01:15:00,45.2,41.0,24.25,SSE,165,19.0,25.0,85,0.00,,SKC,0.01,VWS V14.01,2013-02-19 06:15:00,
2013-02-19 01:20:00,45.2,41.3,24.25,SSW,204,11.0,27.0,86,0.00,,SKC,0.01,VWS V14.01,2013-02-19 06:20:00,
2013-02-19 01:25:00,45.4,41.2,24.27,SSW,210,25.0,34.0,85,0.00,,SKC,0.01,VWS V14.01,2013-02-19 06:25:00,
2013-02-19 01:30:00,45.5,41.3,24.27,SSW,209,6.0,33.0,85,0.00,,SKC,0.01,VWS V14.01,2013-02-19 06:30:00,
2013-02-19 01:35:00,45.6,41.4,24.28,SSW,193,12.0,31.0,85,0.00,,SKC,0.01,VWS V14.01,2013-02-19 06:35:00,
2013-02-19 01:40:00,45.6,41.7,24.26,SSW,213,15.0,17.0,86,0.00,,SKC,0.01,VWS V14.01,2013-02-19 06:40:00,
2013-02-19 01:45:00,45.5,41.6,24.23,SW,225,4.0,19.0,86,0.00,,SKC,0.01,VWS V14.01,2013-02-19 06:45:00,
2013-02-19 01:50:00,45.4,41.8,24.26,SW,223,19.0,23.0,87,0.01,,SKC,0.02,VWS V14.01,2013-02-19 06:50:00,
2013-02-19 01:55:00,45.2,41.9,24.25,South,183,11.0,19.0,88,0.02,,SKC,0.03,VWS V14.01,2013-02-19 06:55:00,
2013-02-19 02:00:00,45.1,41.8,24.24,South,169,17.0,18.0,88,0.02,,SKC,0.03,VWS V14.01,2013-02-19 07:00:00,
2013-02-19 02:05:00,45.0,41.7,24.26,South,184,18.0,18.0,88,0.03,,SKC,0.04,VWS V14.01,2013-02-19 07:05:00,
2013-02-19 02:10:00,44.9,41.9,24.26,SSW,198,12.0,26.0,89,0.03,,SKC,0.04,VWS V14.01,2013-02-19 07:10:00,
2013-02-19 02:15:00,44.9,41.9,24.27,West,259,8.0,26.0,89,0.04,,SKC,0.05,VWS V14.01,2013-02-19 07:15:00,
2013-02-19 02:20:00,42.5,37.4,24.27,WSW,243,10.0,23.0,82,0.08,,SKC,0.09,VWS V14.01,2013-02-19 07:20:00,
2013-02-19 02:25:00,39.6,36.1,24.26,North,360,9.0,23.0,87,0.09,,SKC,0.10,VWS V14.01,2013-02-19 07:25:00,
2013-02-19 02:30:00,37.7,34.2,24.27,North,360,7.0,19.0,87,0.10,,SKC,0.11,VWS V14.01,2013-02-19 07:30:00,
2013-02-19 02:35:00,35.7,32.5,24.26,North,360,11.0,23.0,88,0.10,,SKC,0.11,VWS V14.01,2013-02-19 07:35:00,
2013-02-19 02:40:00,34.5,31.6,24.28,North,360,17.0,20.0,89,0.10,,SKC,0.11,VWS V14.01,2013-02-19 07:40:00,
2013-02-19 02:45:00,34.0,31.6,24.26,West,261,10.0,17.0,91,0.11,,SKC,0.12,VWS V14.01,2013-02-19 07:45:00,
2013-02-19 02:50:00,33.8,31.5,24.26,North,360,11.0,21.0,91,0.11,,SKC,0.12,VWS V14.01,2013-02-19 07:50:00,
2013-02-19 02:55:00,33.7,31.4,24.25,North,360,14.0,24.0,91,0.10,,SKC,0.12,VWS V14.01,2013-02-19 07:55:00,
2013-02-19 03:00:00,33.4,31.1,24.25,North,360,5.0,22.0,91,0.09,,SKC,0.12,VWS V14.01,2013-02-19 08:00:00,
2013-02-19 03:05:00,33.2,30.9,24.26,North,360,10.0,20.0,91,0.09,,SKC,0.12,VWS V14.01,2013-02-19 08:05:00,
2013-02-19 03:10:00,33.1,31.0,24.26,North,360,14.0,19.0,92,0.08,,SKC,0.12,VWS V14.01,2013-02-19 08:10:00,
2013-02-19 03:15:00,33.0,30.9,24.26,West,280,6.0,15.0,92,0.07,,SKC,0.12,VWS V14.01,2013-02-19 08:15:00,
2013-02-19 03:20:00,33.1,31.0,24.25,North,360,4.0,11.0,92,0.05,,SKC,0.12,VWS V14.01,2013-02-19 08:20:00,
2013-02-19 03:25:00,33.1,31.0,24.26,North,360,9.0,14.0,92,0.03,,SKC,0.12,VWS V14.01,2013-02-19 08:25:00,
2013-02-19 03:30:00,33.1,31.0,24.27,North,360,3.0,12.0,92,0.02,,SKC,0.12,VWS V14.01,2013-02-19 08:30:00,
2013-02-19 03:35:00,33.1,31.0,24.26,West,269,4.0,16.0,92,0.01,,SKC,0.12,VWS V14.01,2013-02-19 08:35:00,
2013-02-19 03:40:00,33.1,31.0,24.27,North,360,6.0,12.0,92,0.01,,SKC,0.12,VWS V14.01,2013-02-19 08:40:00,
2013-02-19 03:45:00,33.1,31.3,24.28,North,360,6.0,11.0,93,0.00,,SKC,0.12,VWS V14.01,2013-02-19 08:45:00,
2013-02-19 03:50:00,33.1,31.3,24.26,North,360,16.0,29.0,93,0.00,,SKC,0.12,VWS V14.01,2013-02-19 08:50:00,
2013-02-19 03:55:00,32.9,30.8,24.29,West,274,3.0,21.0,92,0.00,,SKC,0.12,VWS V14.01,2013-02-19 08:55:00,
2013-02-19 04:00:00,32.7,30.6,24.28,North,360,11.0,21.0,92,0.00,,SKC,0.12,VWS V14.01,2013-02-19 09:00:00,
2013-02-19 04:05:00,32.5,30.4,24.28,WNW,302,6.0,15.0,92,0.00,,SKC,0.12,VWS V14.01,2013-02-19 09:05:00,
2013-02-19 04:10:00,32.4,30.3,24.28,North,360,12.0,21.0,92,0.00,,SKC,0.12,VWS V14.01,2013-02-19 09:10:00,
2013-02-19 04:15:00,32.4,30.3,24.28,WSW,257,5.0,18.0,92,0.00,,SKC,0.12,VWS V14.01,2013-02-19 09:15:00,
2013-02-19 04:20:00,32.2,30.1,24.28,WSW,243,9.0,21.0,92,0.00,,SKC,0.12,VWS V14.01,2013-02-19 09:20:00,
2013-02-19 04:25:00,32.0,29.7,24.31,North,360,12.0,18.0,91,0.00,,SKC,0.12,VWS V14.01,2013-02-19 09:25:00,
2013-02-19 04:30:00,31.7,29.4,24.29,North,360,12.0,19.0,91,0.00,,SKC,0.12,VWS V14.01,2013-02-19 09:30:00,
2013-02-19 04:35:00,31.5,28.9,24.28,North,360,7.0,18.0,90,0.00,,SKC,0.12,VWS V14.01,2013-02-19 09:35:00,
2013-02-19 04:40:00,31.3,28.7,24.30,North,360,11.0,21.0,90,0.00,,SKC,0.12,VWS V14.01,2013-02-19 09:40:00,
2013-02-19 04:45:00,31.2,28.3,24.30,North,360,6.0,20.0,89,0.00,,SKC,0.12,VWS V14.01,2013-02-19 09:45:00,
2013-02-19 04:50:00,30.8,28.0,24.30,North,360,6.0,27.0,89,0.00,,SKC,0.12,VWS V14.01,2013-02-19 09:50:00,
2013-02-19 04:55:00,30.5,27.4,24.32,North,360,4.0,21.0,88,0.00,,SKC,0.12,VWS V14.01,2013-02-19 09:55:00,
2013-02-19 05:00:00,30.3,27.5,24.30,North,360,5.0,16.0,89,0.00,,SKC,0.12,VWS V14.01,2013-02-19 10:00:00,
2013-02-19 05:05:00,30.1,27.3,24.30,North,360,5.0,13.0,89,0.00,,SKC,0.12,VWS V14.01,2013-02-19 10:05:00,
2013-02-19 05:10:00,29.8,26.7,24.30,WSW,244,5.0,23.0,88,0.00,,SKC,0.12,VWS V14.01,2013-02-19 10:10:00,
2013-02-19 05:15:00,29.4,26.3,24.32,North,360,14.0,14.0,88,0.00,,SKC,0.12,VWS V14.01,2013-02-19 10:15:00,
2013-02-19 05:20:00,29.2,25.8,24.31,North,360,17.0,24.0,87,0.00,,SKC,0.12,VWS V14.01,2013-02-19 10:20:00,
2013-02-19 05:25:00,29.0,25.4,24.31,North,360,7.0,18.0,86,0.00,,SKC,0.12,VWS V14.01,2013-02-19 10:25:00,
2013-02-19 05:30:00,28.5,24.3,24.29,West,271,16.0,24.0,84,0.00,,SKC,0.12,VWS V14.01,2013-02-19 10:30:00,
2013-02-19 05:35:00,28.1,23.9,24.29,West,271,5.0,16.0,84,0.00,,SKC,0.12,VWS V14.01,2013-02-19 10:35:00,
2013-02-19 05:40:00,28.0,24.1,24.31,West,269,12.0,16.0,85,0.00,,SKC,0.12,VWS V14.01,2013-02-19 10:40:00,
2013-02-19 05:45:00,27.9,23.7,24.32,North,360,6.0,16.0,84,0.00,,SKC,0.12,VWS V14.01,2013-02-19 10:45:00,
2013-02-19 05:50:00,27.9,23.4,24.30,North,360,9.0,20.0,83,0.00,,SKC,0.12,VWS V14.01,2013-02-19 10:50:00,
2013-02-19 05:55:00,27.9,23.4,24.26,North,360,14.0,20.0,83,0.00,,SKC,0.12,VWS V14.01,2013-02-19 10:55:00,
2013-02-19 06:00:00,27.9,23.4,24.29,North,360,18.0,22.0,83,0.00,,SKC,0.12,VWS V14.01,2013-02-19 11:00:00,
2013-02-19 06:05:00,27.7,22.9,24.23,North,360,10.0,23.0,82,0.00,,SKC,0.12,VWS V14.01,2013-02-19 11:05:00,
2013-02-19 06:10:00,27.6,23.4,24.25,North,360,9.0,21.0,84,0.00,,SKC,0.12,VWS V14.01,2013-02-19 11:10:00,
2013-02-19 06:15:00,27.6,23.7,24.24,North,360,8.0,17.0,85,0.00,,SKC,0.12,VWS V14.01,2013-02-19 11:15:00,
2013-02-19 06:20:00,27.7,23.8,24.24,North,360,21.0,25.0,85,0.00,,SKC,0.12,VWS V14.01,2013-02-19 11:20:00,
2013-02-19 06:25:00,27.8,23.9,24.23,West,268,12.0,23.0,85,0.00,,SKC,0.12,VWS V14.01,2013-02-19 11:25:00,
2013-02-19 06:30:00,27.8,23.6,24.23,North,360,14.0,21.0,84,0.00,,SKC,0.12,VWS V14.01,2013-02-19 11:30:00,
2013-02-19 06:35:00,27.5,23.0,24.23,North,360,10.0,24.0,83,0.00,,SKC,0.12,VWS V14.01,2013-02-19 11:35:00,
2013-02-19 06:40:00,27.3,22.8,24.23,North,360,13.0,17.0,83,0.00,,SKC,0.12,VWS V14.01,2013-02-19 11:40:00,
2013-02-19 06:45:00,27.2,22.7,24.23,WNW,292,2.0,11.0,83,0.00,,SKC,0.12,VWS V14.01,2013-02-19 11:45:00,
2013-02-19 06:50:00,27.1,22.4,24.24,North,360,16.0,18.0,82,0.00,,SKC,0.12,VWS V14.01,2013-02-19 11:50:00,
2013-02-19 06:55:00,26.8,22.0,24.24,North,360,4.0,17.0,82,0.00,,SKC,0.12,VWS V14.01,2013-02-19 11:55:00,
2013-02-19 07:00:00,26.7,22.0,24.24,North,360,10.0,20.0,82,0.00,,SKC,0.12,VWS V14.01,2013-02-19 12:00:00,
2013-02-19 07:05:00,26.6,21.9,24.24,WSW,249,7.0,16.0,82,0.00,,SKC,0.12,VWS V14.01,2013-02-19 12:05:00,
2013-02-19 07:10:00,26.6,21.9,24.24,WSW,254,7.0,16.0,82,0.00,,SKC,0.12,VWS V14.01,2013-02-19 12:10:00,
2013-02-19 07:15:00,26.6,21.9,24.24,North,360,8.0,19.0,82,0.00,,SKC,0.12,VWS V14.01,2013-02-19 12:15:00,
2013-02-19 07:20:00,26.7,21.7,24.24,West,263,7.0,19.0,81,0.00,,SKC,0.12,VWS V14.01,2013-02-19 12:20:00,
2013-02-19 07:25:00,26.8,21.8,24.24,West,264,11.0,13.0,81,0.00,,SKC,0.12,VWS V14.01,2013-02-19 12:25:00,
2013-02-19 07:30:00,26.9,21.9,24.24,North,360,7.0,22.0,81,0.00,,SKC,0.12,VWS V14.01,2013-02-19 12:30:00,
2013-02-19 07:35:00,26.9,21.9,24.24,North,360,10.0,19.0,81,0.00,,SKC,0.12,VWS V14.01,2013-02-19 12:35:00,
2013-02-19 07:40:00,27.0,22.2,24.24,North,360,13.0,16.0,82,0.00,,SKC,0.12,VWS V14.01,2013-02-19 12:40:00,
2013-02-19 07:45:00,27.0,22.5,24.24,North,360,5.0,16.0,83,0.00,,SKC,0.12,VWS V14.01,2013-02-19 12:45:00,
2013-02-19 07:50:00,27.1,22.6,24.24,North,360,10.0,15.0,83,0.00,,SKC,0.12,VWS V14.01,2013-02-19 12:50:00,
2013-02-19 07:55:00,27.1,21.8,24.24,North,360,6.0,24.0,80,0.00,,SKC,0.12,VWS V14.01,2013-02-19 12:55:00,
2013-02-19 08:00:00,27.1,21.5,24.24,North,360,9.0,19.0,79,0.00,,SKC,0.12,VWS V14.01,2013-02-19 13:00:00,
2013-02-19 08:05:00,27.0,21.1,24.24,North,360,9.0,18.0,78,0.00,,SKC,0.12,VWS V14.01,2013-02-19 13:05:00,
2013-02-19 08:10:00,26.9,21.0,24.24,North,360,15.0,22.0,78,0.00,,SKC,0.12,VWS V14.01,2013-02-19 13:10:00,
2013-02-19 08:15:00,26.8,20.9,24.24,North,360,12.0,22.0,78,0.00,,SKC,0.12,VWS V14.01,2013-02-19 13:15:00,
2013-02-19 08:20:00,26.7,20.8,24.24,North,360,12.0,15.0,78,0.00,,SKC,0.12,VWS V14.01,2013-02-19 13:20:00,
2013-02-19 08:25:00,26.7,21.1,24.24,North,360,3.0,13.0,79,0.00,,SKC,0.12,VWS V14.01,2013-02-19 13:25:00,
2013-02-19 08:30:00,26.4,20.5,24.24,North,360,12.0,21.0,78,0.00,,SKC,0.12,VWS V14.01,2013-02-19 13:30:00,
2013-02-19 08:35:00,25.9,20.0,24.24,North,360,9.0,21.0,78,0.00,,SKC,0.12,VWS V14.01,2013-02-19 13:35:00,
2013-02-19 08:40:00,25.7,19.8,24.24,WSW,238,6.0,22.0,78,0.00,,SKC,0.12,VWS V14.01,2013-02-19 13:40:00,
2013-02-19 08:45:00,25.6,20.0,24.24,WSW,253,10.0,20.0,79,0.00,,SKC,0.12,VWS V14.01,2013-02-19 13:45:00,
2013-02-19 08:50:00,25.5,20.2,24.24,West,260,5.0,16.0,80,0.00,,SKC,0.12,VWS V14.01,2013-02-19 13:50:00,
2013-02-19 08:55:00,25.4,20.1,24.24,West,277,5.0,17.0,80,0.00,,SKC,0.12,VWS V14.01,2013-02-19 13:55:00,
2013-02-19 09:00:00,25.3,19.7,24.24,North,360,8.0,24.0,79,0.00,,SKC,0.12,VWS V14.01,2013-02-19 14:00:00,
2013-02-19 09:05:00,25.0,19.1,24.26,North,360,12.0,23.0,78,0.00,,SKC,0.12,VWS V14.01,2013-02-19 14:05:00,
2013-02-19 09:10:00,24.8,18.0,24.22,North,360,16.0,23.0,75,0.00,,SKC,0.12,VWS V14.01,2013-02-19 14:10:00,
2013-02-19 09:15:00,24.8,18.0,24.24,North,360,11.0,20.0,75,0.00,,SKC,0.12,VWS V14.01,2013-02-19 14:15:00,
2013-02-19 09:20:00,24.8,18.0,24.24,North,360,11.0,23.0,75,0.00,,SKC,0.12,VWS V14.01,2013-02-19 14:20:00,
2013-02-19 09:25:00,24.7,18.2,24.28,WNW,286,12.0,20.0,76,0.00,,SKC,0.12,VWS V14.01,2013-02-19 14:25:00,
2013-02-19 09:30:00,24.8,18.6,24.30,North,360,9.0,17.0,77,0.00,,SKC,0.12,VWS V14.01,2013-02-19 14:30:00,
2013-02-19 09:35:00,24.7,18.2,24.28,North,360,9.0,17.0,76,0.00,,SKC,0.12,VWS V14.01,2013-02-19 14:35:00,
2013-02-19 09:40:00,24.7,18.5,24.30,WSW,248,6.0,15.0,77,0.00,,SKC,0.12,VWS V14.01,2013-02-19 14:40:00,
2013-02-19 09:45:00,24.8,18.3,24.30,North,360,17.0,20.0,76,0.00,,SKC,0.12,VWS V14.01,2013-02-19 14:45:00,
2013-02-19 09:50:00,24.9,18.7,24.26,North,360,8.0,15.0,77,0.00,,SKC,0.12,VWS V14.01,2013-02-19 14:50:00,
2013-02-19 09:55:00,25.0,19.1,24.26,North,360,5.0,11.0,78,0.00,,SKC,0.12,VWS V14.01,2013-02-19 14:55:00,
2013-02-19 10:00:00,24.9,19.0,24.30,North,360,15.0,16.0,78,0.00,,SKC,0.12,VWS V14.01,2013-02-19 15:00:00,
2013-02-19 10:05:00,25.0,19.1,24.30,North,360,7.0,24.0,78,0.00,,SKC,0.12,VWS V14.01,2013-02-19 15:05:00,
2013-02-19 10:10:00,25.1,19.5,24.29,North,360,7.0,24.0,79,0.00,,SKC,0.12,VWS V14.01,2013-02-19 15:10:00,
2013-02-19 10:15:00,25.1,19.5,24.23,North,360,6.0,18.0,79,0.00,,SKC,0.12,VWS V14.01,2013-02-19 15:15:00,
2013-02-19 10:20:00,25.0,20.0,24.23,North,360,16.0,18.0,81,0.00,,SKC,0.12,VWS V14.01,2013-02-19 15:20:00,
2013-02-19 10:25:00,25.1,20.1,24.25,North,360,3.0,18.0,81,0.00,,SKC,0.12,VWS V14.01,2013-02-19 15:25:00,
2013-02-19 10:30:00,25.2,20.2,24.27,North,360,9.0,19.0,81,0.00,,SKC,0.12,VWS V14.01,2013-02-19 15:30:00,
2013-02-19 10:35:00,25.2,20.2,24.27,North,360,7.0,18.0,81,0.00,,SKC,0.12,VWS V14.01,2013-02-19 15:35:00,
2013-02-19 10:40:00,25.1,20.4,24.25,West,261,6.0,21.0,82,0.00,,SKC,0.12,VWS V14.01,2013-02-19 15:40:00,
2013-02-19 10:45:00,24.9,20.8,24.25,North,360,11.0,13.0,84,0.00,,SKC,0.12,VWS V14.01,2013-02-19 15:45:00,
2013-02-19 10:50:00,24.7,20.8,24.20,North,360,11.0,16.0,85,0.00,,SKC,0.12,VWS V14.01,2013-02-19 15:50:00,
2013-02-19 10:55:00,23.9,20.6,24.20,WNW,300,5.0,16.0,87,0.00,,SKC,0.12,VWS V14.01,2013-02-19 15:55:00,
2013-02-19 11:00:00,23.7,20.4,24.20,West,280,10.0,23.0,87,0.00,,SKC,0.12,VWS V14.01,2013-02-19 16:00:00,
2013-02-19 11:05:00,23.6,20.0,24.25,North,360,7.0,25.0,86,0.00,,SKC,0.12,VWS V14.01,2013-02-19 16:05:00,
2013-02-19 11:10:00,23.7,19.6,24.25,NW,311,11.0,14.0,84,0.00,,SKC,0.12,VWS V14.01,2013-02-19 16:10:00,
2013-02-19 11:15:00,24.0,19.3,24.24,NW,311,16.0,26.0,82,0.00,,SKC,0.12,VWS V14.01,2013-02-19 16:15:00,
2013-02-19 11:20:00,24.0,17.2,24.24,North,360,19.0,24.0,75,0.00,,SKC,0.12,VWS V14.01,2013-02-19 16:20:00,
2013-02-19 11:25:00,24.0,17.5,24.22,North,360,15.0,31.0,76,0.00,,SKC,0.12,VWS V14.01,2013-02-19 16:25:00,
2013-02-19 11:30:00,24.0,17.5,24.25,North,360,9.0,20.0,76,0.00,,SKC,0.12,VWS V14.01,2013-02-19 16:30:00,
2013-02-19 11:35:00,24.0,17.5,24.23,North,360,9.0,16.0,76,0.00,,SKC,0.12,VWS V14.01,2013-02-19 16:35:00,
2013-02-19 11:40:00,23.9,17.8,24.26,North,360,13.0,15.0,77,0.00,,SKC,0.12,VWS V14.01,2013-02-19 16:40:00,
2013-02-19 11:45:00,23.6,16.9,24.25,North,360,10.0,19.0,75,0.00,,SKC,0.12,VWS V14.01,2013-02-19 16:45:00,
2013-02-19 11:50:00,23.5,16.5,24.25,WSW,254,13.0,25.0,74,0.00,,SKC,0.12,VWS V14.01,2013-02-19 16:50:00,
2013-02-19 11:55:00,23.7,17.0,24.25,WNW,283,12.0,19.0,75,0.00,,SKC,0.12,VWS V14.01,2013-02-19 16:55:00,
2013-02-19 12:00:00,23.8,17.0,24.25,North,360,16.0,16.0,75,0.00,,SKC,0.12,VWS V14.01,2013-02-19 17:00:00,
2013-02-19 12:05:00,23.8,17.0,24.23,North,360,12.0,22.0,75,0.00,,SKC,0.12,VWS V14.01,2013-02-19 17:05:00,
2013-02-19 12:10:00,24.1,17.6,24.22,North,360,15.0,15.0,76,0.00,,SKC,0.12,VWS V14.01,2013-02-19 17:10:00,
2013-02-19 12:15:00,24.1,17.6,24.23,North,360,22.0,23.0,76,0.00,,SKC,0.12,VWS V14.01,2013-02-19 17:15:00,
2013-02-19 12:20:00,24.1,17.6,24.22,North,360,14.0,15.0,76,0.00,,SKC,0.12,VWS V14.01,2013-02-19 17:20:00,
2013-02-19 12:25:00,24.3,17.8,24.25,West,262,6.0,16.0,76,0.00,,SKC,0.12,VWS V14.01,2013-02-19 17:25:00,
2013-02-19 12:30:00,24.2,17.4,24.25,North,360,10.0,22.0,75,0.00,,SKC,0.12,VWS V14.01,2013-02-19 17:30:00,
2013-02-19 12:35:00,24.3,17.8,24.21,WNW,299,11.0,20.0,76,0.00,,SKC,0.12,VWS V14.01,2013-02-19 17:35:00,
2013-02-19 12:40:00,24.2,18.0,24.22,North,360,16.0,20.0,77,0.00,,SKC,0.12,VWS V14.01,2013-02-19 17:40:00,
2013-02-19 12:45:00,23.8,18.2,24.23,WSW,257,11.0,21.0,79,0.00,,SKC,0.12,VWS V14.01,2013-02-19 17:45:00,
2013-02-19 12:50:00,24.0,18.7,24.25,North,360,6.0,13.0,80,0.00,,SKC,0.12,VWS V14.01,2013-02-19 17:50:00,
2013-02-19 12:55:00,24.1,18.5,24.22,North,360,7.0,20.0,79,0.00,,SKC,0.12,VWS V14.01,2013-02-19 17:55:00,
2013-02-19 13:00:00,24.0,19.0,24.22,NW,313,6.0,20.0,81,0.00,,SKC,0.12,VWS V14.01,2013-02-19 18:00:00,
2013-02-19 13:05:00,23.9,19.2,24.22,North,360,10.0,19.0,82,0.00,,SKC,0.12,VWS V14.01,2013-02-19 18:05:00,
2013-02-19 13:10:00,23.7,18.7,24.25,North,360,5.0,17.0,81,0.00,,SKC,0.12,VWS V14.01,2013-02-19 18:10:00,
2013-02-19 13:15:00,23.9,18.6,24.24,West,268,11.0,21.0,80,0.00,,SKC,0.12,VWS V14.01,2013-02-19 18:15:00,
2013-02-19 13:20:00,24.0,19.0,24.24,NW,304,12.0,13.0,81,0.00,,SKC,0.12,VWS V14.01,2013-02-19 18:20:00,
2013-02-19 13:25:00,23.9,18.9,24.25,North,360,9.0,24.0,81,0.00,,SKC,0.12,VWS V14.01,2013-02-19 18:25:00,
2013-02-19 13:30:00,23.6,19.5,24.24,North,360,3.0,14.0,84,0.00,,SKC,0.12,VWS V14.01,2013-02-19 18:30:00,
2013-02-19 13:35:00,23.0,18.9,24.25,North,360,15.0,20.0,84,0.00,,SKC,0.12,VWS V14.01,2013-02-19 18:35:00,
2013-02-19 13:40:00,22.4,18.0,24.24,West,272,13.0,26.0,83,0.00,,SKC,0.12,VWS V14.01,2013-02-19 18:40:00,
2013-02-19 13:45:00,22.2,17.5,24.25,North,360,12.0,21.0,82,0.00,,SKC,0.12,VWS V14.01,2013-02-19 18:45:00,
2013-02-19 13:50:00,22.3,17.6,24.25,WNW,287,11.0,16.0,82,0.00,,SKC,0.12,VWS V14.01,2013-02-19 18:50:00,
2013-02-19 13:55:00,22.4,17.2,24.26,WNW,290,14.0,19.0,80,0.00,,SKC,0.12,VWS V14.01,2013-02-19 18:55:00,
2013-02-19 14:00:00,22.6,16.8,24.23,West,277,15.0,24.0,78,0.00,,SKC,0.12,VWS V14.01,2013-02-19 19:00:00,
2013-02-19 14:05:00,22.7,16.9,24.25,North,360,11.0,22.0,78,0.00,,SKC,0.12,VWS V14.01,2013-02-19 19:05:00,
2013-02-19 14:10:00,22.8,16.7,24.29,North,360,12.0,22.0,77,0.00,,SKC,0.12,VWS V14.01,2013-02-19 19:10:00,
2013-02-19 14:15:00,22.9,16.8,24.30,WSW,252,18.0,23.0,77,0.00,,SKC,0.12,VWS V14.01,2013-02-19 19:15:00,
2013-02-19 14:20:00,23.0,18.6,24.27,North,360,15.0,20.0,83,0.00,,SKC,0.12,VWS V14.01,2013-02-19 19:20:00,
2013-02-19 14:25:00,22.8,16.4,24.30,North,360,4.0,19.0,76,0.00,,SKC,0.12,VWS V14.01,2013-02-19 19:25:00,
2013-02-19 14:30:00,22.8,16.4,24.29,North,360,13.0,21.0,76,0.00,,SKC,0.12,VWS V14.01,2013-02-19 19:30:00,
2013-02-19 14:35:00,22.8,16.4,24.27,North,360,7.0,24.0,76,0.00,,SKC,0.12,VWS V14.01,2013-02-19 19:35:00,
2013-02-19 14:40:00,22.9,16.8,24.27,West,273,10.0,16.0,77,0.00,,SKC,0.12,VWS V14.01,2013-02-19 19:40:00,
2013-02-19 14:45:00,23.0,16.9,24.28,West,277,13.0,16.0,77,0.00,,SKC,0.12,VWS V14.01,2013-02-19 19:45:00,
2013-02-19 14:50:00,22.8,16.7,24.28,WNW,302,4.0,18.0,77,0.00,,SKC,0.12,VWS V14.01,2013-02-19 19:50:00,
2013-02-19 14:55:00,22.9,17.1,24.26,North,360,11.0,17.0,78,0.00,,SKC,0.12,VWS V14.01,2013-02-19 19:55:00,
2013-02-19 15:00:00,23.0,16.9,24.25,West,267,9.0,23.0,77,0.00,,SKC,0.12,VWS V14.01,2013-02-19 20:00:00,
2013-02-19 15:05:00,23.1,17.3,24.27,North,360,10.0,21.0,78,0.00,,SKC,0.12,VWS V14.01,2013-02-19 20:05:00,
2013-02-19 15:10:00,23.4,17.3,24.26,SW,215,4.0,15.0,77,0.00,,SKC,0.12,VWS V14.01,2013-02-19 20:10:00,
2013-02-19 15:15:00,23.6,17.5,24.26,North,360,14.0,16.0,77,0.00,,SKC,0.12,VWS V14.01,2013-02-19 20:15:00,
2013-02-19 15:20:00,23.4,17.3,24.29,North,360,9.0,21.0,77,0.00,,SKC,0.12,VWS V14.01,2013-02-19 20:20:00,
2013-02-19 15:25:00,23.2,17.7,24.29,West,280,10.0,18.0,79,0.00,,SKC,0.12,VWS V14.01,2013-02-19 20:25:00,
2013-02-19 15:30:00,23.0,18.6,24.30,North,360,4.0,10.0,83,0.00,,SKC,0.12,VWS V14.01,2013-02-19 20:30:00,
2013-02-19 15:35:00,22.9,18.5,24.30,North,360,14.0,25.0,83,0.00,,SKC,0.12,VWS V14.01,2013-02-19 20:35:00,
2013-02-19 15:40:00,22.9,16.5,24.30,West,267,4.0,25.0,76,0.00,,SKC,0.12,VWS V14.01,2013-02-19 20:40:00,
2013-02-19 15:45:00,22.9,16.2,24.27,West,261,13.0,18.0,75,0.00,,SKC,0.12,VWS V14.01,2013-02-19 20:45:00,
2013-02-19 15:50:00,22.9,15.9,24.28,North,360,11.0,19.0,74,0.00,,SKC,0.12,VWS V14.01,2013-02-19 20:50:00,
2013-02-19 15:55:00,22.7,16.0,24.27,North,360,9.0,15.0,75,0.00,,SKC,0.12,VWS V14.01,2013-02-19 20:55:00,
2013-02-19 16:00:00,22.4,15.4,24.27,North,360,9.0,25.0,74,0.00,,SKC,0.12,VWS V14.01,2013-02-19 21:00:00,
2013-02-19 16:05:00,22.2,15.8,24.27,NW,309,6.0,21.0,76,0.00,,SKC,0.12,VWS V14.01,2013-02-19 21:05:00,
2013-02-19 16:10:00,22.1,16.0,24.27,North,360,10.0,21.0,77,0.00,,SKC,0.12,VWS V14.01,2013-02-19 21:10:00,
2013-02-19 16:15:00,22.1,16.0,24.27,North,360,9.0,23.0,77,0.00,,SKC,0.12,VWS V14.01,2013-02-19 21:15:00,
2013-02-19 16:20:00,22.0,15.6,24.27,WSW,246,7.0,17.0,76,0.00,,SKC,0.12,VWS V14.01,2013-02-19 21:20:00,
2013-02-19 16:25:00,22.0,15.0,24.27,WNW,290,4.0,21.0,74,0.00,,SKC,0.12,VWS V14.01,2013-02-19 21:25:00,
2013-02-19 16:30:00,21.9,15.2,24.27,North,360,19.0,22.0,75,0.00,,SKC,0.12,VWS V14.01,2013-02-19 21:30:00,
2013-02-19 16:35:00,21.8,15.1,24.27,North,360,7.0,23.0,75,0.00,,SKC,0.12,VWS V14.01,2013-02-19 21:35:00,
2013-02-19 16:40:00,21.9,15.5,24.27,North,360,17.0,27.0,76,0.00,,SKC,0.12,VWS V14.01,2013-02-19 21:40:00,
2013-02-19 16:45:00,22.0,15.6,24.27,North,360,5.0,18.0,76,0.00,,SKC,0.12,VWS V14.01,2013-02-19 21:45:00,
2013-02-19 16:50:00,22.0,15.9,24.27,NW,309,5.0,17.0,77,0.00,,SKC,0.12,VWS V14.01,2013-02-19 21:50:00,
2013-02-19 16:55:00,21.9,16.1,24.27,North,360,13.0,17.0,78,0.00,,SKC,0.12,VWS V14.01,2013-02-19 21:55:00,
2013-02-19 17:00:00,21.8,16.3,24.27,West,259,13.0,17.0,79,0.00,,SKC,0.12,VWS V14.01,2013-02-19 22:00:00,
2013-02-19 17:05:00,21.8,16.3,24.27,West,261,6.0,21.0,79,0.00,,SKC,0.12,VWS V14.01,2013-02-19 22:05:00,
2013-02-19 17:10:00,21.9,16.4,24.28,North,360,7.0,18.0,79,0.00,,SKC,0.12,VWS V14.01,2013-02-19 22:10:00,
2013-02-19 17:15:00,21.9,16.7,24.28,North,360,6.0,19.0,80,0.00,,SKC,0.12,VWS V14.01,2013-02-19 22:15:00,
2013-02-19 17:20:00,21.7,16.2,24.28,WSW,246,12.0,20.0,79,0.00,,SKC,0.12,VWS V14.01,2013-02-19 22:20:00,
2013-02-19 17:25:00,21.6,16.1,24.28,North,360,20.0,20.0,79,0.00,,SKC,0.12,VWS V14.01,2013-02-19 22:25:00,
2013-02-19 17:30:00,21.4,15.9,24.27,North,360,6.0,23.0,79,0.00,,SKC,0.12,VWS V14.01,2013-02-19 22:30:00,
2013-02-19 17:35:00,21.5,16.0,24.29,West,273,3.0,16.0,79,0.00,,SKC,0.12,VWS V14.01,2013-02-19 22:35:00,
2013-02-19 17:40:00,21.6,14.9,24.28,North,360,15.0,25.0,75,0.00,,SKC,0.12,VWS V14.01,2013-02-19 22:40:00,
2013-02-19 17:45:00,21.7,14.7,24.27,North,360,4.0,20.0,74,0.00,,SKC,0.12,VWS V14.01,2013-02-19 22:45:00,
2013-02-19 17:50:00,21.6,14.9,24.28,West,259,16.0,20.0,75,0.00,,SKC,0.12,VWS V14.01,2013-02-19 22:50:00,
2013-02-19 17:55:00,21.5,15.4,24.31,WSW,242,5.0,23.0,77,0.00,,SKC,0.12,VWS V14.01,2013-02-19 22:55:00,
2013-02-19 18:00:00,21.5,15.4,24.30,West,275,5.0,17.0,77,0.00,,SKC,0.12,VWS V14.01,2013-02-19 23:00:00,
2013-02-19 18:05:00,21.5,15.7,24.30,WNW,286,4.0,14.0,78,0.00,,SKC,0.12,VWS V14.01,2013-02-19 23:05:00,
2013-02-19 18:10:00,21.6,15.8,24.31,North,360,7.0,19.0,78,0.00,,SKC,0.12,VWS V14.01,2013-02-19 23:10:00,
2013-02-19 18:15:00,21.5,15.4,24.30,WSW,248,11.0,22.0,77,0.00,,SKC,0.12,VWS V14.01,2013-02-19 23:15:00,
2013-02-19 18:20:00,21.5,15.4,24.29,North,360,16.0,19.0,77,0.00,,SKC,0.12,VWS V14.01,2013-02-19 23:20:00,
2013-02-19 18:25:00,21.5,16.0,24.30,WSW,252,11.0,19.0,79,0.00,,SKC,0.12,VWS V14.01,2013-02-19 23:25:00,
2013-02-19 18:30:00,21.4,16.5,24.32,WSW,242,1.0,11.0,81,0.00,,SKC,0.12,VWS V14.01,2013-02-19 23:30:00,
2013-02-19 18:35:00,21.3,16.4,24.31,North,360,10.0,18.0,81,0.00,,SKC,0.12,VWS V14.01,2013-02-19 23:35:00,
2013-02-19 18:40:00,21.3,15.8,24.31,WNW,284,7.0,21.0,79,0.00,,SKC,0.12,VWS V14.01,2013-02-19 23:40:00,
2013-02-19 18:45:00,21.3,15.8,24.33,West,259,6.0,20.0,79,0.00,,SKC,0.12,VWS V14.01,2013-02-19 23:45:00,
2013-02-19 18:50:00,21.3,15.8,24.31,West,262,3.0,14.0,79,0.00,,SKC,0.12,VWS V14.01,2013-02-19 23:50:00,
2013-02-19 18:55:00,21.4,15.3,24.28,West,265,12.0,21.0,77,0.00,,SKC,0.12,VWS V14.01,2013-02-19 23:55:00,
2013-02-19 19:00:00,21.4,15.0,24.29,NW,309,6.0,19.0,76,0.00,,SKC,0.12,VWS V14.01,2013-02-20 00:00:00,
2013-02-19 19:05:00,21.4,14.7,24.28,North,360,10.0,22.0,75,0.00,,SKC,0.12,VWS V14.01,2013-02-20 00:05:00,
2013-02-19 19:10:00,21.3,14.9,24.28,North,360,11.0,14.0,76,0.00,,SKC,0.12,VWS V14.01,2013-02-20 00:10:00,
2013-02-19 19:15:00,21.3,15.2,24.26,West,265,11.0,19.0,77,0.00,,SKC,0.12,VWS V14.01,2013-02-20 00:15:00,
2013-02-19 19:20:00,21.3,14.9,24.26,North,360,5.0,19.0,76,0.00,,SKC,0.12,VWS V14.01,2013-02-20 00:20:00,
2013-02-19 19:25:00,21.3,15.2,24.27,North,360,11.0,17.0,77,0.00,,SKC,0.12,VWS V14.01,2013-02-20 00:25:00,
2013-02-19 19:30:00,21.2,15.4,24.24,West,274,14.0,22.0,78,0.00,,SKC,0.12,VWS V14.01,2013-02-20 00:30:00,
2013-02-19 19:35:00,21.3,15.8,24.23,North,360,7.0,18.0,79,0.00,,SKC,0.12,VWS V14.01,2013-02-20 00:35:00,
2013-02-19 19:40:00,21.3,16.1,24.29,North,360,3.0,19.0,80,0.00,,SKC,0.12,VWS V14.01,2013-02-20 00:40:00,
2013-02-19 19:45:00,21.2,16.3,24.27,WNW,283,7.0,14.0,81,0.00,,SKC,0.12,VWS V14.01,2013-02-20 00:45:00,
2013-02-19 19:50:00,21.2,16.3,24.28,North,360,6.0,16.0,81,0.00,,SKC,0.12,VWS V14.01,2013-02-20 00:50:00,
2013-02-19 19:55:00,21.3,15.8,24.28,North,360,6.0,19.0,79,0.00,,SKC,0.12,VWS V14.01,2013-02-20 00:55:00,
2013-02-19 20:00:00,21.4,15.3,24.28,WNW,292,15.0,17.0,77,0.00,,SKC,0.12,VWS V14.01,2013-02-20 01:00:00,
2013-02-19 20:05:00,21.5,15.1,24.27,North,360,12.0,12.0,76,0.00,,SKC,0.12,VWS V14.01,2013-02-20 01:05:00,
2013-02-19 20:10:00,21.6,15.5,24.29,North,360,10.0,13.0,77,0.00,,SKC,0.12,VWS V14.01,2013-02-20 01:10:00,
2013-02-19 20:15:00,21.6,15.2,24.28,North,360,9.0,14.0,76,0.00,,SKC,0.12,VWS V14.01,2013-02-20 01:15:00,
2013-02-19 20:20:00,21.5,15.1,24.26,WNW,295,7.0,23.0,76,0.00,,SKC,0.12,VWS V14.01,2013-02-20 01:20:00,
2013-02-19 20:25:00,21.6,15.5,24.30,WNW,290,10.0,18.0,77,0.00,,SKC,0.12,VWS V14.01,2013-02-20 01:25:00,
2013-02-19 20:30:00,21.6,15.2,24.28,WNW,299,9.0,14.0,76,0.00,,SKC,0.12,VWS V14.01,2013-02-20 01:30:00,
2013-02-19 20:35:00,21.7,15.3,24.28,NW,321,4.0,12.0,76,0.00,,SKC,0.12,VWS V14.01,2013-02-20 01:35:00,
2013-02-19 20:40:00,21.7,14.7,24.29,North,360,10.0,14.0,74,0.00,,SKC,0.12,VWS V14.01,2013-02-20 01:40:00,
2013-02-19 20:45:00,21.8,14.8,24.30,North,360,13.0,20.0,74,0.00,,SKC,0.12,VWS V14.01,2013-02-20 01:45:00,
2013-02-19 20:50:00,21.9,14.6,24.30,North,360,2.0,13.0,73,0.00,,SKC,0.12,VWS V14.01,2013-02-20 01:50:00,
2013-02-19 20:55:00,21.9,14.6,24.29,WSW,254,13.0,18.0,73,0.00,,SKC,0.12,VWS V14.01,2013-02-20 01:55:00,
2013-02-19 21:00:00,22.0,14.7,24.31,WSW,254,9.0,22.0,73,0.00,,SKC,0.12,VWS V14.01,2013-02-20 02:00:00,
2013-02-19 21:05:00,22.0,14.4,24.30,North,360,11.0,18.0,72,0.00,,SKC,0.12,VWS V14.01,2013-02-20 02:05:00,
2013-02-19 21:10:00,22.1,14.5,24.27,West,263,13.0,18.0,72,0.00,,SKC,0.12,VWS V14.01,2013-02-20 02:10:00,
2013-02-19 21:15:00,22.0,14.4,24.22,North,360,14.0,25.0,72,0.00,,SKC,0.12,VWS V14.01,2013-02-20 02:15:00,
2013-02-19 21:20:00,22.0,14.7,24.22,North,360,14.0,26.0,73,0.00,,SKC,0.12,VWS V14.01,2013-02-20 02:20:00,
2013-02-19 21:25:00,22.0,14.7,24.22,North,360,7.0,16.0,73,0.00,,SKC,0.12,VWS V14.01,2013-02-20 02:25:00,
2013-02-19 21:30:00,21.9,14.6,24.30,West,270,4.0,21.0,73,0.00,,SKC,0.12,VWS V14.01,2013-02-20 02:30:00,
2013-02-19 21:35:00,21.9,14.3,24.30,North,360,20.0,21.0,72,0.00,,SKC,0.12,VWS V14.01,2013-02-20 02:35:00,
2013-02-19 21:40:00,21.8,14.2,24.31,WNW,290,10.0,17.0,72,0.00,,SKC,0.12,VWS V14.01,2013-02-20 02:40:00,
2013-02-19 21:45:00,21.9,14.3,24.30,WNW,288,5.0,19.0,72,0.00,,SKC,0.12,VWS V14.01,2013-02-20 02:45:00,
2013-02-19 21:50:00,21.9,14.3,24.32,West,272,9.0,16.0,72,0.00,,SKC,0.12,VWS V14.01,2013-02-20 02:50:00,
2013-02-19 21:55:00,21.9,14.3,24.32,NW,304,6.0,12.0,72,0.00,,SKC,0.12,VWS V14.01,2013-02-20 02:55:00,
2013-02-19 22:00:00,21.9,14.3,24.30,WNW,283,9.0,17.0,72,0.00,,SKC,0.12,VWS V14.01,2013-02-20 03:00:00,
2013-02-19 22:05:00,22.0,14.7,24.29,West,268,2.0,11.0,73,0.00,,SKC,0.12,VWS V14.01,2013-02-20 03:05:00,
2013-02-19 22:10:00,22.0,15.0,24.28,WNW,288,8.0,9.0,74,0.00,,SKC,0.12,VWS V14.01,2013-02-20 03:10:00,
2013-02-19 22:15:00,22.0,14.7,24.28,NW,307,7.0,17.0,73,0.00,,SKC,0.12,VWS V14.01,2013-02-20 03:15:00,
2013-02-19 22:20:00,21.9,14.9,24.29,North,360,7.0,19.0,74,0.00,,SKC,0.12,VWS V14.01,2013-02-20 03:20:00,
2013-02-19 22:25:00,21.8,14.8,24.29,WNW,290,10.0,17.0,74,0.00,,SKC,0.12,VWS V14.01,2013-02-20 03:25:00,
2013-02-19 22:30:00,21.7,14.4,24.29,NW,313,5.0,15.0,73,0.00,,SKC,0.12,VWS V14.01,2013-02-20 03:30:00,
2013-02-19 22:35:00,21.5,13.2,24.29,WNW,294,6.0,14.0,70,0.00,,SKC,0.12,VWS V14.01,2013-02-20 03:35:00,
2013-02-19 22:40:00,21.5,12.6,24.26,North,360,15.0,23.0,68,0.00,,SKC,0.12,VWS V14.01,2013-02-20 03:40:00,
2013-02-19 22:45:00,21.3,13.1,24.28,WNW,298,19.0,20.0,70,0.00,,SKC,0.12,VWS V14.01,2013-02-20 03:45:00,
2013-02-19 22:50:00,21.2,13.3,24.28,North,360,17.0,21.0,71,0.00,,SKC,0.12,VWS V14.01,2013-02-20 03:50:00,
2013-02-19 22:55:00,21.0,13.4,24.28,WNW,289,5.0,16.0,72,0.00,,SKC,0.12,VWS V14.01,2013-02-20 03:55:00,
2013-02-19 23:00:00,20.9,12.7,24.28,WNW,302,5.0,20.0,70,0.00,,SKC,0.12,VWS V14.01,2013-02-20 04:00:00,
2013-02-19 23:05:00,21.0,12.8,24.28,WNW,286,19.0,19.0,70,0.00,,SKC,0.12,VWS V14.01,2013-02-20 04:05:00,
2013-02-19 23:10:00,20.9,12.7,24.28,WNW,287,14.0,19.0,70,0.00,,SKC,0.12,VWS V14.01,2013-02-20 04:10:00,
2013-02-19 23:15:00,21.0,12.8,24.28,WSW,257,7.0,16.0,70,0.00,,SKC,0.12,VWS V14.01,2013-02-20 04:15:00,
2013-02-19 23:20:00,21.0,12.4,24.28,NW,322,7.0,17.0,69,0.00,,SKC,0.12,VWS V14.01,2013-02-20 04:20:00,
2013-02-19 23:25:00,20.9,12.4,24.32,West,268,7.0,17.0,69,0.00,,SKC,0.12,VWS V14.01,2013-02-20 04:25:00,
2013-02-19 23:30:00,20.9,12.7,24.29,North,360,12.0,14.0,70,0.00,,SKC,0.12,VWS V14.01,2013-02-20 04:30:00,
2013-02-19 23:35:00,20.9,13.0,24.30,WSW,257,4.0,13.0,71,0.00,,SKC,0.12,VWS V14.01,2013-02-20 04:35:00,
2013-02-19 23:40:00,20.8,12.6,24.33,WNW,288,12.0,19.0,70,0.00,,SKC,0.12,VWS V14.01,2013-02-20 04:40:00,
2013-02-19 23:45:00,20.6,13.0,24.30,NW,323,3.0,19.0,72,0.00,,SKC,0.12,VWS V14.01,2013-02-20 04:45:00,
2013-02-19 23:50:00,20.6,12.7,24.30,North,360,14.0,24.0,71,0.00,,SKC,0.12,VWS V14.01,2013-02-20 04:50:00,
2013-02-19 23:55:00,20.6,12.7,24.29,North,360,5.0,16.0,71,0.00,,SKC,0.12,VWS V14.01,2013-02-20 04:55:00,